Regional Weather Roundup
Issued by NWS Portland, ME

Home | Current Version | Previous Version | Text Only | Print | Product List | Glossary On
Versions: 1 2 3 4 5 6 7 8 9 10 11 12 13 14 15 16 17 18 19 20 21 22 23 24 25 26 27 28 29 30 31 32 33 34 35 36 37 38 39 40 41 42 43 44 45 46 47 48 49 50
000
ASUS41 KGYX 041610
RWRGYX
WEATHER ROUNDUP FOR MAINE AND NEW HAMPSHIRE
NATIONAL WEATHER SERVICE GRAY ME
1200 PM EDT WED MAY 04 2016

MEZ002-005-006-010-012-015-018-020-021-024-026-027-029-041700-
MAINE

CITY           SKY/WX    TMP DP  RH WIND       PRES   REMARKS
PORTLAND       CLOUDY    47  41  80 SE9       29.95R
SANFORD        CLOUDY    46  37  71 SE8       29.93R
BAR HARBOR     SUNNY     48  39  71 E9        29.93S
WISCASSET      CLOUDY    52  43  71 CALM      29.94R
ROCKLAND       CLOUDY    44  39  82 E15       29.94R
FRYEBURG       LGT RAIN  50  40  68 E5        29.91S
LEWISTONAUBURN CLOUDY    52  39  62 E7        29.92R
AUGUSTA        CLOUDY    51  37  58 E6        29.92R
BANGOR         CLOUDY    56  40  55 NE10      29.92F
GREENVILLE       N/A     47  35  63 NE6       29.88F
MILLINOCKET    CLOUDY    50  37  61 NE6       29.95F
HOULTON        CLOUDY    47  36  65 CALM      29.96R
PRESQUE ISLE   CLOUDY    49  36  61 CALM      29.95F
FRENCHVILLE    CLOUDY    49  33  54 VRB5      29.94S
CARIBOU        CLOUDY    51  34  52 SE5       29.94S
$$

NHZ002-005-008-009-011-012-014-041700-
NEW HAMPSHIRE

CITY           SKY/WX    TMP DP  RH WIND       PRES   REMARKS
PORTSMOUTH     DRIZZLE   48  43  81 E10       29.90F
ROCHESTER      LGT RAIN  48  39  71 SE8       29.91R
NASHUA         CLOUDY    49  42  77 E10       29.90S
MANCHESTER     CLOUDY    50  40  68 SE10      29.88F
CONCORD        LGT RAIN  48  42  80 VRB3      29.91R
LACONIA        CLOUDY    48  39  71 E7        29.91R
PLYMOUTH       LGT RAIN  49  41  75 E3        29.89S
BERLIN         CLOUDY    48  39  71 S3        29.89R
WHITEFIELD     CLOUDY    51  38  60 SE9       29.87R
JAFFREY        LGT RAIN  45  40  82 CALM      29.87S
KEENE          CLOUDY    46  43  87 CALM      29.88F
LEBANON        LGT RAIN  50  42  74 VRB3      29.87S
MT WASHINGTON  FOG       37  37 100 S6          N/A  VSB 5/16
$$

VTZ005-007-008-041700-
VERMONT

CITY           SKY/WX    TMP DP  RH WIND       PRES   REMARKS
ST JOHNSBURY     N/A     52  41  66 MISG      29.85S
MONTPELIER     CLOUDY    48  39  71 SE8       29.89S
BURLINGTON     DRIZZLE   53  45  74 SE8       29.83R
$$

MAZ007-012-024-CTZ003-RIZ002-NYZ038-NYZ072-041700-
SOUTHERN NEW ENGLAND AND NY

CITY           SKY/WX    TMP DP  RH WIND       PRES   REMARKS
BOSTON         CLOUDY    48  43  82 E13       29.90F
WORCESTER      CLOUDY    45  40  82 E12       29.86S
NANTUCKET      LGT RAIN  48  43  82 NE17G26   29.84R
PROVIDENCE     CLOUDY    52  41  66 NE15      29.86F
HARTFORD       DRIZZLE   50  44  80 N9        29.84F
ALBANY         LGT RAIN  52  46  80 S6        29.82S
NEW YORK CITY  LGT RAIN  50  48  93 NE16      29.78F
$$

ANZ081-ANZ082-ANZ150-NHZ014-MEZ023>029-041700-
COASTAL MARINE OBSERVATIONS

STATION/POSITION TIME  TEMP    WIND        PRES    WAVE
                       AIR SEA DIR/SP/G            HT/PER
                 (UTC) (F)     (DEG/KT/KT) (MB)    (FT/S)
MOUNT DESERT ROC 1600   40      50/ 19/ 21 1014.1F
MATINICUS ROCK   1600   42      90/ 23/ 25 1013.1R
ISLE OF SHOALS   1600   46      60/ 11/ 12 1012.9R
CASHES LEDGE BUO 1550   42 45   70/ 17/ 21 1012.6R   4/ 8
GEORGES BANK BUO 1450   46 45              1009.1    6/ 9
$$

.............KEY..............
   WCI - WIND CHILL
   TC  - TEMPERATURE IN CELSIUS
   VSB - VISIBILITY IN MILES
   HX  - HEAT INDEX
   FAIR- INDICATES FEW OR NO CLOUDS BELOW 12,000 FT, WITH NO
         SIGNIFICANT WEATHER AND/OR OBSTRUCTIONS TO VISIBILITY.





USA.gov is the U.S. government's official web portal to all federal, state and local government web resources and services.